Tracking 25703 objects as of 2-Jul-2022
HD Live streaming from Space Station
objects crossing your sky now

CHINASAT 20

Track CHINASAT 20 now!
CHINASAT 20 is classified as:


NORAD ID: 28082
Int'l Code: 2003-052A
Perigee: 36,090.4 km
Apogee: 36,152.8 km
Inclination: 7.3 °
Period: 1,452.9 minutes
Semi major axis: 42492 km
RCS: 12.5893 m2 (large)
Launch date: November 14, 2003
Source: People's Republic of China (PRC)
Launch site: Xichang Space Center, China (XSC)

Dedicated military communications satellite.
aabbcc
Your satellite tracking list
Your tracking list is empty




NASA's NSSDC Master Catalog

Two Line Element Set (TLE):
1 28082U 03052A   22183.42293285 -.00000244  00000-0  00000-0 0  9992
2 28082   7.2780  61.7144 0007334  46.0756 291.2919  0.99113555 68054
Source of the keplerian elements: AFSPC